WA9NNN-10 Weather Reports


Display with metric or nautical units.
time (UTC)temp
F
wind
direction
speed
MPH
gust
MPH
rain 1hr
in
rain 24hr
in
rain mn
in
humidity
%
barometer
mb
20260903121832 82 193 2.0 2.0 0.00 0.00 0.00 76 1013.7
20260903121331 82 187 3.0 2.0 0.00 0.00 0.00 76 1013.6
20260903120832 82 210 2.0 2.0 0.00 0.00 0.00 76 1013.6
20260903120331 81 212 2.0 2.0 0.00 0.00 0.00 76 1013.7
20260903115832 81 182 3.0 2.0 0.00 0.00 0.00 77 1013.7
20260903115331 81 221 2.0 2.0 0.00 0.00 0.00 77 1013.7
20260903114832 81 181 2.0 2.0 0.00 0.00 0.00 77 1013.6
20260903114331 81 218 3.0 2.0 0.00 0.00 0.00 77 1013.6
20260903113331 81 217 1.0 2.0 0.00 0.00 0.00 77 1013.5
20260903112831 81 229 2.0 2.0 0.00 0.00 0.00 77 1013.5
20260903112331 81 217 2.0 2.0 0.00 0.00 0.00 77 1013.5
20260903111832 81 214 2.0 2.0 0.00 0.00 0.00 77 1013.5
20260903111331 81 224 2.0 2.0 0.00 0.00 0.00 77 1013.5
20260903110331 81 198 3.0 2.0 0.00 0.00 0.00 78 1013.5
20260903105831 81 195 3.0 3.0 0.00 0.00 0.00 78 1013.5
20260903105332 81 210 3.0 3.0 0.00 0.00 0.00 78 1013.5
20260903104831 81 184 3.0 3.0 0.00 0.00 0.00 78 1013.5
20260903102331 81 208 2.0 3.0 0.00 0.00 0.00 79 1013.3
20260903101331 81 217 4.0 2.0 0.00 0.00 0.00 79 1013.4
20260903100331 81 218 1.0 1.0 0.00 0.00 0.00 79 1013.3
20260903095831 81 0 0.0 2.0 0.00 0.00 0.00 80 1013.3
20260903094332 81 221 2.0 2.0 0.00 0.00 0.00 80 1013.2
20260903093831 81 219 5.0 1.0 0.00 0.00 0.00 80 1013.3
20260903093331 82 194 1.0 1.0 0.00 0.00 0.00 80 1013.3
20260903092831 82 194 1.0 1.0 0.00 0.00 0.00 80 1013.2
20260903092331 82 210 1.0 2.0 0.00 0.00 0.00 80 1013.2
20260903091832 82 238 1.0 2.0 0.00 0.00 0.00 80 1013.3
20260903091331 82 199 1.0 2.0 0.00 0.00 0.00 80 1013.2
20260903085331 82 193 1.0 2.0 0.00 0.00 0.00 79 1013.1
20260903084832 82 212 4.0 2.0 0.00 0.00 0.00 79 1013.1
20260903084330 82 0 0.0 2.0 0.00 0.00 0.00 79 1013.1
20260903083331 82 205 1.0 2.0 0.00 0.00 0.00 79 1013.3
20260903082331 82 201 1.0 2.0 0.00 0.00 0.00 79 1013.2
20260903081331 82 221 1.0 1.0 0.00 0.00 0.00 79 1013.2
20260903080330 83 0 0.0 2.0 0.00 0.00 0.00 79 1013.1
20260903075831 83 207 1.0 2.0 0.00 0.00 0.00 79 1013.1
20260903075332 83 204 1.0 2.0 0.00 0.00 0.00 79 1013.1
20260903074331 83 229 2.0 1.0 0.00 0.00 0.00 79 1013.0
20260903072331 83 218 1.0 2.0 0.00 0.00 0.00 80 1013.1
20260903071831 83 0 0.0 1.0 0.00 0.00 0.00 80 1013.1
20260903071331 83 213 1.0 1.0 0.00 0.00 0.00 79 1013.2
20260903065831 84 222 3.0 2.0 0.00 0.00 0.00 79 1013.2
20260903064831 84 217 2.0 1.0 0.00 0.00 0.00 79 1013.2
20260903064330 84 217 1.0 1.0 0.00 0.00 0.00 78 1013.2
20260903063832 84 226 1.0 1.0 0.00 0.00 0.00 78 1013.2
20260903063331 84 196 1.0 1.0 0.00 0.00 0.00 78 1013.3
20260903062831 84 181 1.0 1.0 0.00 0.00 0.00 78 1013.3
20260903062330 84 214 2.0 2.0 0.00 0.00 0.00 78 1013.3
20260903060330 85 212 3.0 2.0 0.00 0.00 0.00 77 1013.4
20260903055331 85 216 4.0 2.0 0.00 0.00 0.00 76 1013.4
20260903054331 85 231 2.0 2.0 0.00 0.00 0.00 76 1013.4
20260903051330 85 199 1.0 2.0 0.00 0.00 0.00 75 1013.2
20260903045331 85 218 2.0 2.0 0.00 0.00 0.00 74 1013.3
20260903044832 85 217 1.0 2.0 0.00 0.00 0.00 74 1013.4
20260903044331 85 202 2.0 2.0 0.00 0.00 0.00 74 1013.4
20260903043330 86 0 0.0 1.0 0.00 0.00 0.00 74 1013.3
20260903040331 86 221 1.0 1.0 0.00 0.00 0.00 72 1013.3
20260903030331 88 182 1.0 2.0 0.00 0.00 0.00 70 1013.0
20260903025331 88 195 2.0 2.0 0.00 0.00 0.00 70 1013.1
20260903023330 88 219 2.0 2.0 0.00 0.00 0.00 69 1013.1
20260903021330 89 0 0.0 2.0 0.00 0.00 0.00 68 1012.9
20260903020330 89 195 2.0 3.0 0.00 0.00 0.00 67 1012.9
20260903015831 89 221 2.0 3.0 0.00 0.00 0.00 67 1012.8
20260903014831 89 214 2.0 2.0 0.00 0.00 0.00 67 1012.8
20260903014331 89 217 4.0 2.0 0.00 0.00 0.00 66 1012.8
20260903013831 90 212 3.0 2.0 0.00 0.00 0.00 66 1012.8
20260903013330 90 196 1.0 2.0 0.00 0.00 0.00 66 1012.7
20260903012330 90 204 3.0 2.0 0.00 0.00 0.00 65 1012.7
20260903011330 90 176 3.0 3.0 0.00 0.00 0.00 65 1012.5
20260903010831 90 228 4.0 3.0 0.00 0.00 0.00 64 1012.5
20260903010331 90 219 1.0 3.0 0.00 0.00 0.00 64 1012.4
20260903005830 91 191 3.0 3.0 0.00 0.00 0.00 64 1012.3
20260903004831 91 195 3.0 3.0 0.00 0.00 0.00 63 1012.3
20260903004330 91 219 3.0 3.0 0.00 0.00 0.00 63 1012.3
20260903003330 91 221 4.0 3.0 0.00 0.00 0.00 62 1012.1
20260903002331 91 221 5.0 4.0 0.00 0.00 0.00 61 1012.2
20260903001330 92 220 3.0 4.0 0.00 0.00 0.00 61 1012.2
20260903000831 92 206 4.0 4.0 0.00 0.00 0.00 61 1012.1
20260903000332 92 198 5.0 4.0 0.00 0.00 0.00 61 1012.2
20260902235330 92 141 2.0 5.0 0.00 0.00 0.00 60 1012.2
20260902234832 93 216 8.0 5.0 0.00 0.00 0.00 60 1012.3
20260902234330 93 235 4.0 4.0 0.00 0.00 0.00 59 1012.3
20260902233831 93 212 3.0 4.0 0.00 0.00 0.00 59 1012.2
20260902233331 94 186 5.0 4.0 0.00 0.00 0.00 59 1012.2
20260902230330 95 230 4.0 5.0 0.00 0.00 0.00 55 1012.2
20260902225831 95 212 8.0 5.0 0.00 0.00 0.00 55 1012.1
20260902224830 96 249 3.0 5.0 0.00 0.00 0.00 53 1012.1
20260902223831 97 227 7.0 4.0 0.00 0.00 0.00 52 1012.1
20260902223330 97 213 4.0 3.0 0.00 0.00 0.00 52 1012.1
20260902222831 97 271 1.0 2.0 0.00 0.00 0.00 51 1012.2
20260902222330 97 266 1.0 2.0 0.00 0.00 0.00 51 1012.2
20260902221830 97 221 3.0 3.0 0.00 0.00 0.00 50 1012.3
20260902220831 97 215 4.0 2.0 0.00 0.00 0.00 50 1012.3
20260902220330 97 237 2.0 4.0 0.00 0.00 0.00 50 1012.3
20260902215330 97 215 5.0 4.0 0.00 0.00 0.00 48 1012.3
20260902214831 97 213 4.0 3.0 0.00 0.00 0.00 49 1012.4
20260902214331 97 206 1.0 3.0 0.00 0.00 0.00 50 1012.3
20260902213830 97 224 3.0 4.0 0.00 0.00 0.00 49 1012.4
20260902213330 97 301 4.0 4.0 0.00 0.00 0.00 48 1012.4
20260902212330 97 197 5.0 5.0 0.00 0.00 0.00 47 1012.4
20260902211830 97 245 3.0 5.0 0.00 0.00 0.00 48 1012.4
20260902210331 98 231 7.0 4.0 0.00 0.00 0.00 46 1012.4
20260902205331 98 225 2.0 3.0 0.00 0.00 0.00 46 1012.7
20260902204331 98 229 3.0 3.0 0.00 0.00 0.00 45 1012.7
20260902203331 99 230 5.0 5.0 0.00 0.00 0.00 45 1012.7
20260902202331 100 186 10.0 4.0 0.00 0.00 0.00 47 1012.7
20260902201331 100 293 9.0 3.0 0.00 0.00 0.00 44 1012.8
20260902200331 100 226 4.0 3.0 0.00 0.00 0.00 45 1012.8
20260902195831 100 238 2.0 3.0 0.00 0.00 0.00 45 1012.9
20260902192331 101 203 8.0 4.0 0.00 0.00 0.00 45 1013.1
20260902190331 99 193 4.0 5.0 0.00 0.00 0.00 46 1013.2
20260902185831 99 210 5.0 5.0 0.00 0.00 0.00 46 1013.3
20260902185331 99 173 11.0 4.0 0.00 0.00 0.00 46 1013.3
20260902184831 100 197 7.0 4.0 0.00 0.00 0.00 45 1013.2
20260902184331 101 226 6.0 5.0 0.00 0.00 0.00 43 1013.2
20260902183831 102 214 6.0 4.0 0.00 0.00 0.00 43 1013.2
20260902183331 102 184 7.0 4.0 0.00 0.00 0.00 45 1013.3
20260902182831 101 213 4.0 4.0 0.00 0.00 0.00 44 1013.4
20260902182331 101 169 3.0 4.0 0.00 0.00 0.00 45 1013.4
20260902181831 101 225 5.0 4.0 0.00 0.00 0.00 45 1013.5
20260902181331 101 169 5.0 4.0 0.00 0.00 0.00 45 1013.5
20260902180831 102 170 3.0 4.0 0.00 0.00 0.00 44 1013.5
20260902180331 102 138 4.0 4.0 0.00 0.00 0.00 44 1013.4
20260902175832 102 189 5.0 5.0 0.00 0.00 0.00 44 1013.4
20260902175331 101 236 6.0 5.0 0.00 0.00 0.00 44 1013.5
20260902174831 102 204 4.0 4.0 0.00 0.00 0.00 43 1013.6
20260902174331 102 221 5.0 4.0 0.00 0.00 0.00 44 1013.7
20260902173832 102 203 3.0 3.0 0.00 0.00 0.00 46 1013.7
20260902173331 102 224 6.0 3.0 0.00 0.00 0.00 45 1013.8
20260902172831 101 225 4.0 3.0 0.00 0.00 0.00 46 1013.7
20260902172331 101 162 2.0 3.0 0.00 0.00 0.00 46 1013.7
20260902171832 100 228 2.0 3.0 0.00 0.00 0.00 47 1013.8
20260902171331 100 229 2.0 4.0 0.00 0.00 0.00 46 1013.9
20260902170832 100 179 2.0 3.0 0.00 0.00 0.00 48 1014.0
20260902170331 100 210 4.0 3.0 0.00 0.00 0.00 47 1014.0
20260902165831 100 198 7.0 3.0 0.00 0.00 0.00 48 1014.0
20260902165331 99 241 1.0 3.0 0.00 0.00 0.00 49 1014.1
20260902164831 99 300 2.0 2.0 0.00 0.00 0.00 49 1014.2
20260902164330 99 210 2.0 2.0 0.00 0.00 0.00 49 1014.2
20260902163831 98 294 1.0 3.0 0.00 0.00 0.00 50 1014.2
20260902163331 98 221 5.0 4.0 0.00 0.00 0.00 50 1014.2
20260902162832 98 217 3.0 4.0 0.00 0.00 0.00 50 1014.2
20260902162331 98 175 4.0 3.0 0.00 0.00 0.00 51 1014.2
20260902161831 98 229 1.0 3.0 0.00 0.00 0.00 51 1014.3
20260902161330 97 227 1.0 3.0 0.00 0.00 0.00 52 1014.3
20260902160831 97 198 1.0 3.0 0.00 0.00 0.00 53 1014.3
20260902160331 96 208 2.0 2.0 0.00 0.00 0.00 52 1014.3
20260902155831 96 178 1.0 2.0 0.00 0.00 0.00 54 1014.3
20260902155330 95 306 1.0 2.0 0.00 0.00 0.00 55 1014.5
20260902154831 95 293 3.0 2.0 0.00 0.00 0.00 55 1014.6
20260902154331 95 137 1.0 2.0 0.00 0.00 0.00 56 1014.6
20260902153831 94 287 2.0 2.0 0.00 0.00 0.00 56 1014.7
20260902153330 94 298 1.0 2.0 0.00 0.00 0.00 56 1014.6
20260902152831 94 235 1.0 2.0 0.00 0.00 0.00 57 1014.6
20260902152331 93 218 1.0 2.0 0.00 0.00 0.00 58 1014.5
20260902134831 85 221 1.0 4.0 0.00 0.00 0.00 68 1014.5
20260902132330 83 198 2.0 1.0 0.00 0.00 0.00 72 1014.8
20260902131831 83 200 1.0 2.0 0.00 0.00 0.00 72 1014.9
20260902131330 83 195 2.0 3.0 0.00 0.00 0.00 72 1014.6
20260902130831 82 224 3.0 2.0 0.00 0.00 0.00 72 1014.6
20260902130331 82 203 3.0 2.0 0.00 0.00 0.00 72 1014.6
20260902125831 82 219 1.0 2.0 0.00 0.00 0.00 72 1014.6
20260902124830 82 231 1.0 2.0 0.00 0.00 0.00 72 1014.8
20260902124330 82 218 3.0 2.0 0.00 0.00 0.00 73 1014.8
20260902122330 81 217 2.0 3.0 0.00 0.00 0.00 73 1014.8